Temp
71 72 72 72 60 57 54 63 74 73 75 81 84 82 80 77 76 65 78 83 79 76 74 77 78 78 78 78 77 77 77 77 77 77 77 77 77 77 77 77 77 77 78 78 78 78 77 77 77
76 77 73 68 56 50 56 69 70 75 81 87 88 83 79 76 84 81 80 81 80 76 73 74 78 78 78 78 77 77 77 77 77 77 77 77 77 77 77 77 77 77 77 78 78 78 78 78 78
78 81 67 61 55 53 58 72 74 78 82 83 81 89 83 79 84 84 82 80 77 75 74 74 78 78 78 78 77 77 77 77 77 77 77 77 77 77 77 77 77 77 77 78 78 78 78 78 78
76 71 66 57 56 64 68 74 77 80 83 84 83 80 84 87 87 88 83 80 77 75 75 76 77 77 78 78 77 77 77 77 77 77 77 77 77 77 76 77 77 77 77 78 78 78 78 78 78
72 66 56 54 60 68 74 78 82 78 79 82 84 78 78 85 88 84 81 81 77 74 75 76 77 77 78 78 77 77 77 77 77 77 77 77 77 76 76 76 77 77 77 77 77 77 77 77 77
64 62 52 52 61 72 73 79 80 79 79 81 79 79 80 86 85 84 83 80 80 77 76 76 77 77 77 77 77 77 76 76 76 77 77 77 76 76 76 76 77 77 77 77 77 77 77 76 75
60 55 52 58 63 68 74 81 80 83 83 82 84 77 77 83 86 85 84 83 80 79 77 76 76 77 77 77 77 76 76 76 76 76 76 76 76 76 76 76 76 76 76 76 76 76 76 75 75
65 58 52 58 62 64 77 79 79 82 83 89 89 76 72 83 86 85 84 83 80 78 78 76 75 75 75 75 77 76 76 76 76 76 76 76 76 76 76 75 76 76 76 76 76 76 75 75 74
71 53 50 56 63 68 78 76 84 88 84 86 87 85 88 92 88 81 78 79 74 79 76 74 74 75 74 74 76 76 77 76 76 76 76 74 71 71 73 74 75 76 76 76 76 75 75 74 74
62 55 56 67 71 68 76 76 79 79 79 81 82 87 92 91 83 81 80 79 78 78 75 73 73 73 74 76 74 74 74 74 73 73 72 71 68 68 72 73 76 76 76 76 76 75 75 74 67
64 60 67 69 74 76 75 76 81 78 74 80 79 85 88 86 84 82 83 84 83 81 80 75 74 73 73 75 73 73 72 72 71 71 70 69 69 68 69 66 69 69 74 71 73 71 69 67 65
61 69 70 72 76 75 74 78 76 77 77 84 84 86 85 83 81 83 82 83 83 81 75 76 75 73 72 74 73 73 71 71 70 70 69 68 67 66 65 67 66 66 67 67 66 65 65 65 66
65 67 71 74 74 75 77 74 74 76 83 87 85 85 81 81 81 80 81 81 82 79 80 76 75 74 73 73 73 72 71 71 70 69 68 68 67 65 67 67 64 65 64 65 64 64 65 64 65
64 66 69 71 71 74 73 74 76 79 84 84 85 83 83 81 79 79 78 77 77 77 79 73 74 75 74 74 73 72 72 71 70 70 69 69 70 68 67 66 64 63 64 64 64 65 63 63 64
67 60 66 68 68 68 75 68 70 80 83 82 81 80 80 80 81 79 79 78 77 78 78 75 71 73 74 75 74 73 72 72 70 70 70 70 70 69 68 66 65 64 64 65 66 64 63 64 65
58 57 53 65 69 71 70 59 74 78 78 77 78 82 84 80 81 85 80 76 75 75 77 76 78 71 72 74 73 74 73 72 72 71 70 71 71 69 67 65 64 64 63 63 63 62 62 62 61
52 49 52 58 68 68 68 62 72 77 77 76 75 77 79 81 79 77 78 78 76 75 76 73 71 69 70 68 71 70 69 70 67 68 68 70 70 69 66 65 65 64 63 63 62 61 61 60 60
46 49 54 54 63 67 65 64 71 76 77 76 77 79 80 81 80 81 77 78 76 74 72 71 69 67 68 69 67 67 66 66 67 67 67 68 70 68 65 65 64 63 62 62 61 61 61 60 60
55 54 52 58 66 63 62 63 67 72 70 70 73 75 76 77 79 80 79 75 73 70 69 68 67 67 70 70 67 65 64 65 65 66 68 67 67 66 66 64 64 63 62 61 61 61 60 60 61
52 49 49 56 63 61 61 61 68 71 72 74 75 74 74 70 72 76 74 70 70 70 68 67 67 67 67 66 65 66 65 65 67 67 67 69 68 67 65 64 63 63 62 62 61 60 60 60 60
51 49 50 50 59 62 59 55 60 68 69 72 73 73 72 72 74 75 72 69 66 67 66 66 66 67 67 67 67 65 65 65 64 64 64 65 67 67 66 64 62 62 63 61 60 61 59 57 57
46 57 56 54 51 44 59 43 57 64 67 71 71 73 69 72 74 73 70 65 65 65 66 66 67 67 67 67 66 65 62 61 62 63 63 65 68 67 66 64 64 63 62 61 60 60 59 58 56
50 59 56 55 50 49 51 43 55 58 60 63 68 68 73 78 70 72 68 68 65 65 64 66 66 66 66 66 66 63 62 62 61 62 63 63 63 65 67 65 63 62 61 61 60 60 59 58 57
59 54 53 53 45 38 48 46 50 56 61 65 65 69 72 71 72 66 65 66 64 65 65 66 65 64 65 65 65 64 63 61 60 60 60 61 62 62 64 65 62 62 61 60 60 61 60 58 58
50 41 32 30 33 36 51 46 53 57 62 66 67 70 70 70 64 63 64 65 64 64 64 65 64 63 64 64 64 63 63 62 61 61 60 61 60 61 62 62 61 61 61 61 61 59 59 59 58
44 42 33 27 29 38 51 42 52 64 71 72 74 73 72 67 63 64 65 65 65 65 64 64 64 63 64 64 63 63 63 61 62 61 61 61 61 61 62 62 62 62 63 62 61 59 60 60 60
44 40 48 38 45 36 44 51 61 67 68 71 71 69 68 63 62 63 64 64 65 64 63 64 64 63 64 64 63 63 63 62 61 62 62 61 61 63 62 62 62 62 63 62 61 60 61 61 60
48 51 38 37 30 30 40 43 48 56 61 65 66 68 62 61 63 64 64 64 65 65 64 63 64 63 63 63 64 64 62 63 63 63 62 62 62 63 62 62 62 62 62 62 61 60 62 61 59
42 41 42 41 38 35 33 41 55 58 60 63 68 66 63 63 63 64 65 65 65 65 66 64 64 63 63 64 63 62 63 64 62 62 62 62 62 62 62 63 63 63 63 62 61 61 61 61 60
47 43 41 35 36 39 43 44 63 60 62 64 63 64 65 65 66 65 65 66 65 66 65 64 63 64 64 64 64 63 63 62 62 62 63 62 62 62 64 63 64 63 64 62 62 62 62 61 62
MSLP
1011.29 1011.60 1012.06 1012.09 1012.80 1012.32 1010.97 1009.01 1007.20 1005.85 1004.68 1003.64 1003.22 1003.79 1003.68 1004.33 1004.92 1005.94 1004.97 1005.53 1006.00 1006.79 1007.74 1008.41 1008.89 1009.18 1009.46 1009.77 1010.13 1010.53 1010.78 1011.14 1011.43 1011.74 1012.04 1012.27 1012.51 1012.63 1012.87 1012.96 1013.12 1013.22 1013.34 1013.53 1013.83 1013.86 1013.76 1013.78 1013.95
1011.01 1011.54 1011.92 1012.12 1012.21 1011.62 1009.69 1007.91 1006.26 1005.18 1004.23 1002.98 1002.78 1003.06 1003.79 1004.25 1003.96 1004.72 1005.56 1005.90 1005.82 1006.50 1007.42 1008.19 1008.67 1009.10 1009.52 1009.75 1009.98 1010.39 1010.59 1010.96 1011.28 1011.66 1011.92 1012.20 1012.37 1012.51 1012.70 1012.95 1013.11 1013.09 1013.22 1013.40 1013.72 1013.75 1013.64 1013.61 1013.79
1010.88 1011.05 1011.88 1011.93 1011.54 1010.32 1008.80 1007.16 1005.52 1004.61 1003.78 1003.41 1003.27 1002.94 1003.58 1004.17 1004.27 1004.05 1004.49 1005.52 1006.15 1006.92 1007.39 1007.98 1008.42 1008.90 1009.34 1009.64 1009.75 1010.23 1010.54 1010.75 1010.99 1011.35 1011.66 1011.92 1012.11 1012.31 1012.49 1012.72 1012.85 1012.89 1013.03 1013.26 1013.41 1013.52 1013.48 1013.41 1013.50
1011.02 1011.46 1011.85 1011.59 1010.69 1008.90 1007.31 1005.89 1005.33 1004.24 1003.64 1003.32 1002.97 1003.41 1003.62 1003.44 1003.65 1003.88 1004.91 1005.66 1006.16 1006.80 1007.10 1007.39 1007.83 1008.38 1008.79 1009.04 1009.22 1009.59 1010.09 1010.39 1010.61 1010.90 1011.34 1011.56 1011.71 1012.04 1012.26 1012.44 1012.60 1012.67 1012.75 1012.96 1013.14 1013.24 1013.22 1013.19 1013.28
1011.27 1011.70 1011.97 1011.17 1009.61 1007.63 1007.16 1005.86 1004.94 1004.55 1003.58 1003.08 1002.71 1003.20 1003.84 1003.74 1003.51 1004.11 1004.84 1005.40 1005.72 1006.59 1006.76 1006.82 1007.01 1007.44 1007.70 1008.23 1008.70 1009.03 1009.37 1009.65 1009.90 1010.35 1010.81 1011.19 1011.38 1011.79 1012.09 1012.21 1012.40 1012.51 1012.54 1012.72 1012.90 1012.96 1013.01 1013.06 1013.14
1011.73 1011.88 1011.93 1010.92 1009.03 1007.01 1006.77 1005.62 1004.70 1004.46 1003.61 1003.34 1003.34 1003.35 1003.83 1003.63 1003.77 1004.08 1004.56 1005.00 1005.24 1005.67 1006.19 1006.40 1006.55 1007.17 1007.92 1008.28 1008.62 1008.77 1009.00 1009.42 1009.59 1009.78 1010.19 1010.64 1011.03 1011.48 1011.81 1012.01 1012.17 1012.26 1012.29 1012.46 1012.72 1012.77 1012.78 1012.96 1013.10
1011.82 1012.13 1011.48 1010.34 1008.74 1006.76 1005.89 1004.96 1004.31 1003.51 1003.63 1003.02 1003.02 1003.64 1004.11 1004.10 1003.47 1003.78 1004.12 1004.52 1004.83 1005.43 1005.80 1006.26 1006.75 1007.22 1007.52 1007.79 1008.08 1008.38 1008.75 1009.16 1009.51 1009.77 1010.02 1010.22 1010.65 1011.08 1011.46 1011.66 1011.93 1011.95 1012.13 1012.20 1012.43 1012.56 1012.61 1012.78 1012.94
1011.28 1011.88 1011.49 1009.93 1008.60 1006.55 1005.64 1004.52 1003.90 1003.95 1002.92 1002.62 1002.76 1003.55 1004.04 1003.56 1003.53 1003.77 1003.77 1004.19 1004.75 1005.18 1005.66 1005.93 1006.11 1006.87 1007.22 1007.45 1007.64 1008.06 1008.48 1008.79 1008.98 1009.37 1010.04 1010.37 1010.38 1010.63 1011.01 1011.21 1011.49 1011.47 1011.72 1011.89 1012.08 1012.31 1012.46 1012.62 1012.77
1010.45 1011.39 1010.93 1009.42 1008.22 1006.16 1005.79 1005.02 1003.40 1003.62 1003.48 1002.78 1002.54 1002.62 1002.77 1002.79 1003.11 1003.77 1003.89 1004.62 1005.14 1005.20 1005.41 1006.11 1006.24 1006.45 1006.91 1007.22 1007.56 1007.80 1008.05 1008.43 1008.72 1009.02 1009.39 1010.02 1010.35 1010.40 1010.73 1010.93 1011.34 1011.50 1011.40 1011.54 1011.76 1012.02 1012.26 1012.50 1012.63
1010.23 1010.30 1009.48 1008.01 1007.20 1006.33 1005.98 1005.52 1004.00 1004.40 1004.00 1003.11 1002.60 1002.33 1002.18 1002.30 1002.72 1003.65 1003.94 1004.32 1004.46 1004.77 1004.88 1005.47 1005.92 1006.01 1006.42 1006.58 1007.05 1007.22 1007.62 1008.02 1008.26 1008.47 1009.02 1009.42 1009.87 1010.25 1010.44 1010.75 1010.95 1011.20 1011.17 1011.32 1011.56 1011.78 1012.06 1012.28 1012.50
1009.06 1008.51 1008.18 1007.32 1007.11 1006.66 1005.97 1005.37 1005.16 1004.73 1004.01 1003.35 1002.88 1002.64 1002.40 1002.32 1002.87 1003.34 1003.25 1003.07 1002.84 1003.11 1003.87 1004.51 1004.88 1005.13 1005.54 1006.04 1006.48 1006.80 1007.29 1007.59 1007.99 1008.13 1008.58 1009.05 1009.53 1010.01 1010.27 1010.65 1010.72 1010.89 1010.93 1011.24 1011.35 1011.66 1011.91 1012.14 1012.31
1008.36 1007.56 1007.52 1006.74 1006.48 1006.35 1005.54 1004.90 1004.49 1004.28 1003.82 1003.17 1002.57 1002.35 1002.33 1002.52 1002.81 1002.81 1002.76 1002.69 1002.46 1002.21 1002.81 1003.17 1003.77 1004.50 1004.93 1005.48 1005.70 1005.98 1006.52 1006.99 1007.37 1007.54 1008.07 1008.70 1009.25 1009.81 1010.13 1010.34 1010.23 1010.32 1010.61 1010.93 1011.22 1011.58 1011.78 1012.00 1012.06
1007.72 1007.34 1006.73 1006.32 1005.94 1005.64 1005.37 1004.82 1004.28 1003.27 1002.77 1002.48 1002.29 1002.06 1002.17 1002.30 1002.41 1002.21 1002.13 1001.93 1001.68 1001.85 1001.67 1002.09 1002.62 1003.51 1004.06 1004.58 1004.95 1005.42 1005.67 1006.10 1006.44 1007.08 1007.59 1008.10 1008.74 1009.23 1009.58 1009.76 1009.85 1010.02 1010.27 1010.67 1011.15 1011.43 1011.67 1011.84 1011.77
1007.10 1007.25 1006.54 1006.18 1005.66 1005.26 1005.06 1003.95 1003.64 1002.79 1002.34 1002.00 1001.74 1001.54 1001.44 1001.51 1001.72 1001.64 1001.58 1001.49 1001.57 1001.27 1001.21 1001.40 1001.77 1002.25 1003.02 1003.42 1003.87 1004.35 1004.91 1005.34 1005.83 1006.44 1006.91 1007.51 1007.94 1008.65 1008.99 1009.33 1009.59 1009.85 1009.92 1010.27 1010.65 1010.92 1011.25 1011.43 1011.56
1007.39 1007.34 1006.58 1005.55 1005.27 1004.71 1004.73 1003.11 1002.36 1002.29 1002.22 1001.91 1001.63 1001.54 1001.32 1001.15 1001.03 1001.16 1000.92 1000.92 1000.76 1000.54 1000.32 1000.77 1001.09 1001.55 1002.07 1002.39 1002.85 1003.58 1004.05 1004.83 1005.34 1006.01 1006.42 1006.93 1007.41 1007.88 1008.15 1008.61 1009.07 1009.28 1009.50 1009.90 1010.34 1010.70 1011.01 1011.14 1011.26
1007.76 1007.44 1006.31 1004.79 1004.88 1004.19 1005.16 1000.40 1001.86 1001.91 1001.79 1001.52 1001.37 1001.07 1000.72 1000.64 1000.44 1000.03 999.99 1000.11 999.84 999.90 1000.21 1000.14 1000.24 1000.88 1001.32 1001.74 1002.26 1002.83 1003.48 1004.17 1004.80 1005.42 1005.87 1006.41 1006.82 1007.23 1007.77 1008.22 1008.70 1008.82 1009.26 1009.86 1010.29 1010.62 1010.81 1011.01 1011.23
1007.86 1006.57 1005.49 1004.73 1004.57 1004.49 1004.39 999.36 1001.93 1001.90 1001.63 1001.34 1001.12 1000.59 1000.28 1000.04 999.77 999.61 999.31 999.21 999.27 999.28 999.41 999.75 1000.00 1000.29 1000.71 1001.45 1001.95 1002.53 1003.12 1003.76 1004.36 1005.00 1005.57 1005.95 1006.45 1006.87 1007.48 1007.98 1008.35 1008.44 1009.16 1009.67 1009.97 1010.25 1010.48 1010.79 1010.87
1007.49 1006.65 1004.79 1004.38 1004.73 1004.28 1003.75 1000.68 1001.83 1001.68 1001.43 1001.05 1000.50 999.96 999.81 999.47 999.25 998.79 998.50 998.40 998.37 998.82 998.94 999.36 999.60 1000.21 1000.73 1001.46 1002.00 1002.65 1003.29 1003.84 1004.27 1004.79 1005.36 1005.77 1006.13 1006.59 1007.26 1007.68 1008.02 1008.40 1008.96 1009.40 1009.76 1010.10 1010.18 1010.25 1010.36
1006.76 1006.21 1005.24 1004.99 1004.52 1004.17 1003.32 1002.02 1001.51 1001.11 1000.96 1000.35 999.74 999.51 999.09 998.74 998.15 998.01 997.97 998.17 998.44 998.63 998.91 999.05 999.59 1000.39 1000.66 1001.50 1002.26 1002.87 1003.46 1004.12 1004.61 1004.87 1005.21 1005.80 1006.14 1006.67 1007.02 1007.43 1007.78 1008.25 1008.73 1008.95 1009.25 1009.57 1009.87 1009.93 1010.05
1007.35 1006.66 1005.70 1005.50 1004.65 1003.98 1003.47 1002.34 1001.21 1000.74 1000.32 999.75 999.20 998.96 998.70 998.54 998.01 997.69 997.83 998.33 998.09 998.31 998.67 999.17 999.61 999.98 1000.49 1001.29 1002.04 1002.63 1003.43 1004.09 1004.32 1004.74 1005.13 1005.37 1005.82 1006.23 1006.73 1007.08 1007.55 1008.01 1008.44 1008.71 1008.94 1009.21 1009.48 1009.54 1009.89
1006.40 1006.38 1006.36 1006.05 1005.24 1003.76 1004.04 1002.97 1001.66 1000.10 999.79 999.13 998.69 998.17 998.03 997.84 997.61 997.53 997.94 998.07 998.22 998.43 998.75 999.17 999.72 1000.02 1000.55 1001.25 1001.99 1002.95 1003.52 1004.07 1004.59 1004.97 1005.39 1005.60 1005.71 1006.06 1006.46 1006.92 1007.33 1007.64 1007.95 1008.16 1008.29 1008.71 1009.06 1009.41 1009.79
1006.05 1006.32 1006.08 1006.20 1006.41 1004.64 1004.86 1002.92 1001.62 999.51 998.38 998.20 998.02 997.66 997.73 997.23 996.84 997.07 997.50 998.18 998.14 998.53 998.95 999.26 999.84 1000.52 1000.74 1001.35 1002.19 1002.92 1003.76 1004.47 1004.70 1004.90 1005.18 1005.38 1005.67 1006.00 1006.32 1006.73 1007.11 1007.29 1007.70 1007.94 1008.15 1008.32 1008.73 1009.09 1009.61
1005.47 1006.19 1006.17 1006.41 1005.85 1005.71 1004.88 1004.61 998.06 999.35 997.70 997.60 997.19 997.14 996.61 996.16 996.77 996.71 996.89 997.54 998.25 998.75 999.19 999.67 1000.08 1000.78 1001.16 1001.66 1002.30 1003.04 1003.82 1004.29 1004.59 1004.93 1005.34 1005.63 1005.82 1005.97 1006.12 1006.52 1006.77 1007.09 1007.46 1007.66 1007.94 1008.21 1008.40 1008.69 1009.13
1006.09 1005.98 1006.23 1006.26 1006.20 1005.46 1004.34 1004.35 996.98 998.03 996.84 996.70 996.66 996.17 995.93 995.86 996.05 996.56 997.09 997.79 998.50 999.03 999.44 1000.00 1000.53 1001.22 1001.45 1002.06 1002.56 1003.11 1003.79 1004.45 1004.89 1005.34 1005.63 1005.85 1005.97 1006.04 1006.26 1006.49 1006.82 1007.00 1007.29 1007.54 1007.70 1007.83 1008.13 1008.51 1008.80
1006.22 1006.77 1006.84 1006.60 1006.00 1003.84 1003.86 1003.34 997.30 996.10 995.72 995.81 996.10 995.76 995.71 995.58 996.30 996.93 997.06 997.82 998.53 999.12 999.71 1000.29 1000.89 1001.64 1001.67 1002.19 1002.82 1003.30 1003.83 1004.35 1004.81 1005.32 1005.62 1005.87 1006.11 1006.28 1006.24 1006.37 1006.66 1006.83 1007.04 1007.29 1007.48 1007.68 1007.90 1008.10 1008.35
1005.81 1006.24 1006.18 1006.22 1005.36 1004.07 1003.56 1000.21 997.08 996.54 995.31 994.98 994.99 995.13 995.06 995.35 995.98 996.70 997.01 997.69 998.50 999.19 999.65 1000.54 1001.22 1001.72 1001.86 1002.41 1003.03 1003.43 1003.92 1004.44 1004.86 1005.25 1005.51 1005.72 1005.96 1006.02 1006.12 1006.32 1006.49 1006.66 1006.88 1007.09 1007.27 1007.48 1007.66 1007.75 1008.00
1005.57 1005.62 1005.95 1006.07 1005.03 1004.67 1001.82 999.32 997.41 995.83 995.08 994.75 994.44 994.57 994.59 995.16 995.83 996.59 997.33 997.94 998.60 999.35 999.89 1000.50 1001.20 1001.70 1002.04 1002.55 1003.05 1003.54 1003.96 1004.35 1004.75 1004.99 1005.16 1005.52 1005.75 1005.94 1006.15 1006.27 1006.47 1006.60 1006.74 1006.85 1007.07 1007.30 1007.45 1007.50 1007.68
1005.43 1005.56 1005.59 1005.76 1005.51 1004.26 1001.14 999.26 996.76 995.36 994.63 994.39 994.24 993.69 994.24 995.19 996.09 996.73 997.38 998.09 998.84 999.51 999.96 1000.62 1001.19 1001.71 1002.16 1002.62 1003.06 1003.58 1003.96 1004.12 1004.49 1004.91 1005.36 1005.55 1005.73 1005.88 1006.12 1006.33 1006.52 1006.62 1006.57 1006.68 1006.94 1007.20 1007.28 1007.46 1007.58
1005.47 1005.18 1005.41 1005.30 1004.82 1003.26 1001.27 997.71 995.95 995.00 994.32 993.99 993.39 992.66 993.62 994.72 995.71 996.50 997.37 998.16 998.93 999.66 1000.04 1000.80 1001.32 1001.84 1002.31 1002.69 1003.18 1003.61 1003.96 1004.18 1004.56 1005.08 1005.32 1005.53 1005.74 1005.88 1006.14 1006.32 1006.42 1006.56 1006.69 1006.77 1006.91 1007.09 1007.22 1007.45 1007.63
1005.64 1005.49 1005.62 1005.27 1004.12 1002.65 1000.87 996.47 995.08 994.72 994.02 993.76 993.57 993.26 993.59 994.21 995.37 996.26 997.30 998.01 998.94 999.54 1000.14 1000.83 1001.36 1001.91 1002.31 1002.71 1003.19 1003.66 1003.99 1004.37 1004.82 1005.13 1005.29 1005.48 1005.66 1005.95 1006.08 1006.29 1006.24 1006.46 1006.66 1006.76 1006.76 1007.01 1007.15 1007.38 1007.61
Wind_Speed
5 4 1 2 3 3 4 6 4 9 4 5 3 6 7 2 5 5 2 13 13 17 14 17 19 19 19 19 18 18 18 17 16 15 15 14 13 13 11 11 10 9 7 6 5 4 3 2 3
4 4 2 1 3 1 5 4 6 3 6 11 10 5 5 1 2 8 6 7 15 17 14 13 19 19 18 19 19 18 18 17 17 16 16 15 14 14 13 11 10 9 7 6 6 6 5 5 5
2 1 3 3 3 6 4 4 2 2 2 4 2 2 6 3 2 10 3 14 13 14 13 12 19 18 19 19 19 18 18 18 18 17 16 16 15 14 13 13 11 10 9 8 8 8 7 7 7
2 3 4 2 7 8 7 6 6 3 5 2 1 4 3 4 7 9 13 14 14 13 14 18 22 21 21 21 21 20 19 19 19 19 18 17 17 15 14 14 12 11 10 10 10 10 9 9 9
3 2 1 4 6 9 4 8 13 5 3 6 1 2 3 3 8 15 16 15 16 13 14 18 25 25 25 23 22 22 22 22 21 21 19 18 17 16 15 14 13 12 12 11 11 10 9 8 10
2 2 1 5 7 10 3 9 5 4 5 7 3 4 4 3 11 14 16 16 15 18 17 16 24 24 22 22 22 22 22 22 21 21 21 19 18 16 16 14 14 13 13 12 12 11 8 7 8
3 3 4 4 6 11 3 6 4 11 10 2 3 7 2 5 9 15 16 14 14 12 15 14 15 19 23 24 24 23 22 21 20 19 19 19 17 16 15 15 15 14 13 13 13 11 10 9 10
5 4 4 4 4 12 3 5 4 7 7 4 6 5 4 8 6 9 10 12 12 10 12 14 15 15 16 16 24 23 22 22 22 20 18 17 17 16 16 15 15 15 15 14 14 13 11 11 10
6 2 5 6 5 9 7 15 14 8 5 1 6 7 8 9 8 4 2 7 1 6 9 8 12 14 14 13 15 21 24 23 22 20 20 15 7 9 12 13 15 16 15 14 14 14 11 11 12
6 7 9 8 7 6 14 7 23 7 10 8 4 4 9 5 6 8 6 7 8 13 9 11 12 14 14 12 13 14 13 12 12 12 12 9 8 7 9 11 16 17 17 15 15 14 12 11 4
8 12 13 15 12 11 16 16 14 14 13 8 3 5 9 7 5 9 8 9 8 9 12 16 16 14 15 13 9 7 7 7 8 11 10 9 7 6 5 3 4 4 14 5 9 7 4 5 4
9 13 16 18 17 16 18 14 18 16 14 11 10 7 5 7 8 8 8 10 8 8 14 16 16 14 15 10 10 10 9 9 8 10 11 8 6 5 5 5 5 4 4 6 5 3 4 5 6
19 9 11 13 15 18 18 20 20 22 20 15 9 9 9 9 10 9 11 10 10 7 8 16 16 16 15 15 10 10 11 10 10 9 11 9 8 6 6 6 4 4 4 5 5 5 5 5 6
3 7 17 13 15 16 18 21 19 21 18 18 16 13 11 10 10 8 9 10 10 8 10 10 16 17 15 16 15 11 10 11 10 9 10 12 9 7 6 5 5 4 5 5 5 6 5 5 5
10 13 15 18 8 8 7 21 25 21 15 18 11 9 10 11 10 11 11 10 9 9 10 9 13 14 16 18 15 11 10 10 9 8 10 12 10 10 9 5 5 4 5 5 4 3 3 3 3
3 5 17 15 16 8 6 33 16 7 8 14 14 16 21 15 13 15 12 9 10 7 10 9 8 13 13 14 12 10 9 9 8 7 7 12 12 9 6 5 4 5 4 4 4 4 4 3 4
6 17 20 20 7 4 15 36 14 11 14 17 13 16 14 16 14 12 12 10 9 11 11 8 9 11 12 8 8 7 7 7 5 6 6 10 10 8 6 5 5 5 4 4 4 4 3 4 4
12 20 19 18 7 14 19 33 21 20 23 22 23 24 23 23 18 16 13 11 10 10 6 7 7 7 8 7 6 5 5 5 5 6 7 9 8 7 5 5 5 5 4 4 2 4 4 4 4
7 17 8 5 11 15 19 24 18 16 9 14 18 17 19 19 16 14 14 8 7 5 7 9 9 8 9 8 5 5 5 4 4 4 8 8 5 7 7 5 4 5 5 6 6 4 6 4 3
13 15 14 9 9 9 13 22 23 22 18 19 21 19 18 8 10 12 7 7 10 9 6 7 7 9 6 5 4 4 4 3 3 4 6 7 8 8 6 6 5 5 4 4 5 5 3 3 4
16 18 13 10 10 22 13 12 17 20 13 16 13 13 10 10 14 13 9 10 8 9 9 8 7 10 8 7 6 5 4 4 3 2 3 4 6 6 7 6 5 5 4 4 4 4 5 3 2
19 9 13 14 12 16 7 18 22 21 25 20 14 15 10 14 12 9 7 7 9 7 7 8 10 8 8 8 8 8 5 4 3 3 2 4 6 6 6 5 5 4 3 4 4 4 4 4 4
19 11 13 14 10 16 16 7 29 7 18 13 14 10 16 17 10 14 11 11 6 8 7 8 10 8 8 8 8 6 5 3 2 2 6 4 3 5 5 5 5 5 4 4 5 4 5 3 3
5 9 12 16 2 11 9 11 29 17 22 17 7 14 12 9 10 1 7 11 9 8 9 9 10 6 8 8 8 9 8 6 6 4 4 3 2 2 2 4 3 4 4 4 4 5 5 4 4
4 2 2 3 7 17 12 10 24 7 5 10 14 16 12 12 6 9 14 13 12 12 11 9 9 7 8 9 8 8 8 9 8 6 4 4 2 2 3 4 4 3 4 4 4 4 5 5 4
7 10 6 7 4 8 7 15 18 17 26 21 23 18 14 8 9 11 14 14 13 13 12 9 9 8 9 9 8 8 8 5 5 5 4 4 3 3 3 4 4 4 4 4 4 3 4 5 4
5 10 7 5 14 1 7 10 19 23 24 21 19 11 13 7 11 13 11 12 14 12 11 12 11 8 8 8 7 7 6 7 6 5 4 3 3 3 5 5 4 4 4 5 5 3 4 4 4
8 3 5 3 7 9 6 7 11 7 14 10 13 17 7 8 11 13 13 13 10 11 11 9 8 9 8 8 7 6 6 6 6 5 4 5 4 4 5 4 3 3 4 5 5 3 3 4 2
1 5 5 4 4 9 6 11 8 13 10 12 17 10 17 16 15 14 13 13 11 11 11 9 8 8 8 7 6 7 6 6 6 5 5 5 4 5 5 5 6 5 4 4 4 4 5 5 5
6 9 5 5 12 6 11 18 10 9 10 8 10 8 14 18 17 15 15 15 13 13 11 9 7 8 8 7 6 7 7 6 6 5 5 5 4 3 5 5 5 4 4 4 4 5 4 6 5
Wind_Direction
140 144 175 50 63 79 248 251 277 290 275 186 174 10 150 112 154 195 280 158 142 150 161 170 168 164 162 157 155 157 155 154 151 152 152 155 156 153 154 157 160 160 160 164 189 201 206 230 260
135 151 47 76 116 186 259 242 228 226 313 16 352 49 359 46 102 120 100 184 156 152 159 167 167 167 165 163 161 165 160 158 158 161 162 166 166 165 167 172 176 176 182 190 212 220 221 231 245
129 157 100 140 197 206 208 200 300 226 207 343 55 254 146 227 48 141 152 148 136 151 161 166 170 171 170 172 167 169 166 163 164 168 172 173 173 174 177 183 187 189 197 210 225 234 238 238 245
146 28 2 167 232 267 229 311 292 350 340 232 101 271 326 230 149 172 140 139 142 160 168 172 174 175 178 178 174 173 172 172 173 176 181 181 180 183 185 188 192 198 206 217 226 232 237 244 250
26 69 229 254 244 253 351 274 281 242 160 263 125 89 1 335 132 137 151 157 154 169 180 179 178 182 183 181 180 177 177 180 180 182 186 187 184 187 192 193 199 206 213 225 234 240 250 256 258
354 109 104 238 252 269 230 262 204 284 275 300 274 84 232 170 136 173 160 170 171 172 187 186 184 184 183 182 185 185 184 188 187 186 189 190 189 190 195 200 206 212 216 224 239 244 246 242 247
136 84 227 258 283 298 217 279 261 241 228 18 135 128 276 263 203 168 179 175 179 183 177 182 185 188 187 188 189 191 190 190 193 194 195 192 192 192 200 203 211 213 224 228 235 240 236 239 242
151 110 265 253 237 277 340 354 308 2 288 8 152 141 201 241 237 187 181 177 180 182 185 187 182 187 192 194 193 192 193 195 194 195 202 202 197 196 203 206 216 215 221 227 230 235 233 234 241
141 145 236 232 208 252 67 308 297 341 268 268 174 163 189 207 173 245 238 145 199 193 187 185 180 190 192 195 201 196 197 199 199 198 199 201 202 202 206 211 220 228 221 226 225 230 231 236 244
161 199 230 214 237 301 313 320 304 349 323 299 23 355 303 304 160 197 218 243 189 205 187 178 185 188 191 197 198 198 197 201 201 196 198 194 189 195 204 211 226 231 225 221 225 228 229 243 230
202 214 226 261 259 266 284 286 267 289 283 268 283 287 273 321 270 212 217 213 217 181 195 190 190 190 189 195 189 192 196 195 203 196 189 190 189 202 200 204 224 223 231 219 222 227 221 221 222
257 215 220 251 256 263 262 275 280 265 258 240 252 242 227 232 253 254 228 232 230 218 188 191 190 189 193 190 193 192 191 193 198 198 188 184 182 193 194 210 211 194 194 195 187 194 220 237 245
247 245 224 238 258 253 264 263 262 278 281 273 269 269 230 239 248 240 231 243 244 233 217 188 180 190 193 194 190 193 195 195 193 192 189 184 188 190 200 214 192 192 172 179 188 204 214 223 232
264 254 258 246 245 254 257 264 263 269 273 285 278 270 266 261 242 250 253 244 247 232 232 171 188 193 186 193 190 191 191 195 189 190 191 191 187 187 196 189 188 192 179 183 195 204 208 215 210
262 277 281 257 236 249 291 275 254 259 273 272 269 272 274 262 254 237 241 241 232 218 211 191 185 184 187 192 191 186 188 183 182 185 187 187 184 195 191 178 176 185 180 181 175 185 197 198 213
280 248 247 245 243 245 198 259 256 254 255 271 279 283 279 262 252 259 245 232 235 204 211 206 183 180 186 188 186 183 179 175 177 175 174 179 191 189 166 159 171 173 159 169 177 182 206 217 216
225 245 242 249 231 228 203 259 254 235 251 265 269 266 273 278 268 257 245 228 214 209 219 196 189 181 177 171 171 167 155 161 151 159 167 179 181 171 162 166 188 165 161 175 175 193 191 213 223
221 224 235 245 222 234 242 265 264 269 266 267 267 267 268 268 260 256 245 225 213 224 224 198 181 157 145 136 108 105 116 127 137 153 161 164 173 169 167 178 175 155 157 180 176 221 220 202 202
259 244 270 207 208 232 243 264 266 252 246 262 266 265 258 256 251 249 241 222 174 182 176 171 152 157 140 150 135 118 134 127 114 156 155 177 177 191 180 181 173 162 176 193 202 208 208 211 180
252 267 268 293 284 255 246 253 264 264 261 250 256 258 250 246 260 254 253 185 184 172 159 141 143 147 130 118 113 117 129 140 139 157 170 179 173 179 168 167 177 181 184 222 217 177 193 192 155
232 236 253 260 306 289 297 282 284 276 257 261 269 255 267 250 258 261 189 203 160 166 167 146 133 127 123 119 102 77 63 50 56 88 136 186 172 157 156 161 176 188 194 214 200 181 194 182 168
248 247 244 251 258 260 210 278 264 267 264 264 244 252 247 246 249 249 210 168 181 157 140 134 130 131 127 126 118 136 145 147 195 161 152 160 151 158 167 179 187 188 185 200 201 193 167 142 179
254 253 235 236 234 249 250 295 265 261 261 249 252 249 253 259 235 243 186 181 144 138 130 125 120 128 131 129 133 132 126 139 129 108 127 130 144 170 185 178 171 179 179 199 196 179 186 176 150
319 242 240 259 222 250 209 201 272 243 250 250 223 241 251 261 259 183 137 133 132 129 126 126 125 130 131 130 131 128 133 129 108 109 108 130 141 215 211 181 183 183 179 188 198 201 192 192 183
218 62 252 258 210 236 168 209 234 256 273 230 237 249 252 247 159 164 147 147 144 140 134 132 128 131 128 123 121 126 118 118 124 137 143 154 180 194 196 163 177 171 184 197 185 194 189 189 187
187 177 190 191 205 240 262 231 245 230 259 267 263 244 251 257 168 164 159 148 142 142 135 133 134 130 122 120 120 116 117 122 130 147 158 164 168 181 177 167 167 187 184 183 173 172 186 193 200
304 219 199 292 273 274 228 275 280 277 277 274 267 255 246 180 159 152 138 139 141 141 137 143 134 129 123 123 122 116 121 126 135 140 137 143 158 155 170 163 162 168 170 166 168 179 193 197 201
196 241 187 197 204 239 252 250 238 233 248 272 268 255 179 140 141 141 139 136 140 139 132 128 132 132 135 130 131 145 142 142 135 126 148 159 163 159 155 159 161 176 169 168 172 173 195 162 148
241 217 192 158 207 220 258 251 196 253 243 274 283 239 157 155 153 145 139 139 137 137 135 140 136 132 134 140 159 138 145 137 127 142 157 161 180 170 163 171 165 179 167 172 168 164 154 131 127
268 282 174 210 234 248 242 246 306 252 287 293 293 176 158 153 150 143 143 141 143 145 141 148 142 141 154 160 150 139 124 129 131 141 152 173 163 174 171 177 156 155 163 172 161 165 166 154 152